Date String (YYYY-MM-DD hh:mm:ss) UTC,Instrument flags,Ambient pressure (hPa),Sample flow (lpm),Bypass flow (lpm),Sample temperature (°C),Ambient temperature (°C),ASC tube jacket temperature (°C),LED temperature (°C),Box temperature (°C),Sample RH (%),Span deviation,Mass concentration (μg/m³),Mass concentration (μg/m³),Mass concentration (μg/m³)
DateTimeUTC,F1_M11,P_M11,Q1_M11,Q2_M11,T1_M11,T2_M11,T3_M11,T4_M11,T5_M11,U1_M11,ZSPAN_M11,X0_M11,X2_M11,X1_M11
2022-09-14 00:00:00,,0822.4,5.00,0.00,29.6,28.4,00.0,38.2,31.5,13.8,0002.2,0025.20,0013.94,0012.65
2022-09-14 00:01:00,,0822.4,5.00,0.00,29.7,28.6,00.0,38.3,31.6,13.8,0002.3,0025.54,0013.89,0012.60
2022-09-14 00:02:00,,0822.4,4.99,0.00,29.7,28.7,00.0,38.3,31.7,13.9,0002.3,0026.48,0013.88,0012.59
2022-09-14 00:03:00,,0822.4,4.99,0.00,29.8,28.0,00.0,38.3,31.7,13.8,0002.0,0027.00,0013.90,0012.59
2022-09-14 00:04:00,,0822.4,5.00,0.00,29.7,26.6,00.0,38.3,31.6,13.7,0002.2,0027.87,0013.98,0012.62
2022-09-14 00:05:00,,0822.4,5.00,0.00,29.7,26.2,00.0,38.2,31.5,13.7,0002.3,0027.46,0014.00,0012.61
2022-09-14 00:06:00,,0822.3,5.00,0.00,29.6,26.5,00.0,38.2,31.3,13.7,0002.4,0027.43,0014.03,0012.64
2022-09-14 00:07:00,,0822.4,5.01,0.00,29.5,26.8,00.0,38.2,31.2,13.8,0002.1,0027.81,0014.11,0012.68
2022-09-14 00:08:00,,0822.4,5.00,0.00,29.5,27.2,00.0,38.2,31.3,13.8,0001.8,0027.04,0014.11,0012.68
2022-09-14 00:09:00,,0822.4,4.99,0.00,29.5,27.5,00.0,38.2,31.3,13.8,0001.2,0026.68,0014.12,0012.72
2022-09-14 00:10:00,,0822.4,5.01,0.00,29.5,27.8,00.0,38.2,31.4,13.9,0001.0,0027.28,0014.21,0012.78
2022-09-14 00:11:00,,0822.4,4.99,0.00,29.6,28.0,00.0,38.2,31.4,13.8,0000.9,0027.93,0014.24,0012.83
2022-09-14 00:12:00,,0822.4,5.00,0.00,29.6,28.2,00.0,38.2,31.5,13.8,0000.8,0028.59,0014.25,0012.85
2022-09-14 00:13:00,,0822.4,5.00,0.00,29.6,28.4,00.0,38.2,31.5,13.8,0000.8,0028.64,0014.28,0012.85
2022-09-14 00:14:00,,0822.4,5.00,0.00,29.7,28.5,00.0,38.3,31.6,13.7,0000.8,0027.74,0014.28,0012.86
2022-09-14 00:15:00,,0822.4,5.00,0.00,29.7,28.7,00.0,38.3,31.7,13.6,0001.4,0026.34,0014.27,0012.90
2022-09-14 00:16:00,,0822.4,5.00,0.00,29.7,28.7,00.0,38.3,31.7,13.6,0001.6,0025.49,0014.23,0012.90
2022-09-14 00:17:00,,0822.4,5.01,0.00,29.8,27.8,00.0,38.3,31.7,13.6,0001.7,0026.13,0014.29,0012.93
2022-09-14 00:18:00,,0822.4,5.00,0.00,29.7,26.5,00.0,38.3,31.5,13.6,0001.7,0025.81,0014.30,0012.93
2022-09-14 00:19:00,,0822.4,4.99,0.00,29.7,26.3,00.0,38.2,31.5,13.7,0001.5,0026.24,0014.30,0012.92
2022-09-14 00:20:00,,0822.3,5.00,0.00,29.6,26.5,00.0,38.2,31.3,13.8,0001.7,0028.46,0014.33,0012.93
2022-09-14 00:21:00,,0822.4,5.00,0.00,29.5,26.8,00.0,38.2,31.2,13.9,0002.3,0028.21,0014.33,0012.93
2022-09-14 00:22:00,,0822.3,4.99,0.00,29.5,27.2,00.0,38.2,31.2,13.9,0002.6,0027.72,0014.38,0012.92
2022-09-14 00:23:00,,0822.4,5.01,0.00,29.5,27.5,00.0,38.2,31.3,13.9,0002.4,0026.99,0014.36,0012.89
2022-09-14 00:24:00,,0822.4,4.99,0.00,29.5,27.8,00.0,38.2,31.4,14.0,0002.2,0027.24,0014.36,0012.88
2022-09-14 00:25:00,,0822.4,5.00,0.00,29.6,28.0,00.0,38.2,31.4,14.1,0002.0,0027.83,0014.42,0012.89
2022-09-14 00:26:00,,0822.3,5.01,0.00,29.6,28.2,00.0,38.2,31.5,14.1,0001.8,0028.39,0014.35,0012.81
2022-09-14 00:27:00,,0822.4,4.99,0.00,29.6,28.3,00.0,38.3,31.5,13.9,0001.6,0028.84,0014.27,0012.74
2022-09-14 00:28:00,,0822.4,5.01,0.00,29.7,28.5,00.0,38.3,31.6,13.9,0001.5,0029.49,0014.21,0012.67
2022-09-14 00:29:00,,0822.4,5.01,0.00,29.7,28.6,00.0,38.3,31.6,13.8,0001.1,0029.39,0014.16,0012.63
2022-09-14 00:30:00,,0822.4,4.99,0.00,29.8,28.8,00.0,38.3,31.7,13.7,0001.3,0029.45,0014.16,0012.64
2022-09-14 00:31:00,,0822.3,5.00,0.00,29.8,28.4,00.0,38.3,31.7,13.7,0001.6,0027.98,0014.16,0012.62
2022-09-14 00:32:00,,0822.4,5.00,0.00,29.8,26.9,00.0,38.3,31.6,13.8,0001.4,0027.37,0014.13,0012.57
2022-09-14 00:33:00,,0822.4,5.00,0.00,29.7,26.2,00.0,38.3,31.5,13.9,0001.3,0027.25,0014.14,0012.54
2022-09-14 00:34:00,,0822.3,5.00,0.00,29.7,26.4,00.0,38.2,31.4,14.0,0001.7,0026.87,0014.15,0012.53
2022-09-14 00:35:00,,0822.4,5.01,0.00,29.6,26.7,00.0,38.2,31.3,14.1,0001.7,0026.57,0014.11,0012.49
2022-09-14 00:36:00,,0822.4,4.99,0.00,29.5,27.1,00.0,38.2,31.3,14.2,0001.7,0026.74,0014.04,0012.43
2022-09-14 00:37:00,,0822.4,5.00,0.00,29.5,27.4,00.0,38.2,31.3,14.3,0001.2,0026.79,0013.96,0012.38
2022-09-14 00:38:00,,0822.4,5.00,0.00,29.5,27.7,00.0,38.2,31.3,14.4,0001.3,0027.10,0013.95,0012.36
2022-09-14 00:39:00,,0822.4,5.00,0.00,29.6,27.9,00.0,38.2,31.4,14.5,0001.1,0026.65,0013.95,0012.35
2022-09-14 00:40:00,,0822.4,4.99,0.00,29.6,28.1,00.0,38.2,31.5,14.5,0001.5,0027.54,0013.92,0012.31
2022-09-14 00:41:00,,0822.4,4.99,0.00,29.6,28.3,00.0,38.2,31.5,14.6,0001.8,0027.10,0013.90,0012.22
2022-09-14 00:42:00,,0822.4,5.00,0.00,29.6,28.5,00.0,38.3,31.6,14.3,0001.7,0026.78,0013.88,0012.19
2022-09-14 00:43:00,,0822.4,5.00,0.00,29.7,28.6,00.0,38.3,31.6,14.3,0001.6,0027.20,0013.83,0012.19
2022-09-14 00:44:00,,0822.4,4.99,0.00,29.7,28.7,00.0,38.3,31.6,14.3,0001.3,0028.38,0013.75,0012.17
2022-09-14 00:45:00,,0822.4,5.01,0.00,29.8,28.6,00.0,38.4,31.7,14.4,0001.3,0028.54,0013.72,0012.18
2022-09-14 00:46:00,,0822.4,4.99,0.00,29.8,27.4,00.0,38.4,31.7,14.6,0001.8,0027.66,0013.68,0012.16
2022-09-14 00:47:00,,0822.4,5.00,0.00,29.7,26.2,00.0,38.3,31.5,14.7,0002.4,0026.83,0013.66,0012.18
2022-09-14 00:48:00,,0822.4,5.00,0.00,29.7,26.2,00.0,38.3,31.5,14.8,0002.8,0026.86,0013.73,0012.21
2022-09-14 00:49:00,,0822.4,5.01,0.00,29.6,26.4,00.0,38.2,31.2,14.7,0003.1,0027.04,0013.78,0012.24
2022-09-14 00:50:00,,0822.4,5.00,0.00,29.5,26.8,00.0,38.2,31.2,14.8,0003.6,0027.69,0013.74,0012.22
2022-09-14 00:51:00,,0822.4,5.00,0.00,29.5,27.2,00.0,38.2,31.2,14.9,0003.2,0027.47,0013.76,0012.22
2022-09-14 00:52:00,,0822.4,4.99,0.00,29.5,27.5,00.0,38.2,31.3,14.9,0003.0,0027.48,0013.74,0012.26
2022-09-14 00:53:00,,0822.3,5.01,0.00,29.5,27.8,00.0,38.2,31.4,15.0,0003.1,0029.32,0013.73,0012.27
2022-09-14 00:54:00,,0822.4,5.00,0.00,29.5,28.0,00.0,38.2,31.4,15.0,0003.1,0029.92,0013.71,0012.26
2022-09-14 00:55:00,,0822.4,4.99,0.00,29.6,28.1,00.0,38.2,31.4,15.1,0002.9,0028.76,0013.72,0012.26
2022-09-14 00:56:00,,0822.4,5.00,0.00,29.6,28.3,00.0,38.3,31.5,15.1,0002.8,0029.45,0013.68,0012.23
2022-09-14 00:57:00,,0822.4,5.01,0.00,29.6,28.5,00.0,38.3,31.6,15.2,0002.6,0029.76,0013.67,0012.22
2022-09-14 00:58:00,,0822.4,5.00,0.00,29.7,28.6,00.0,38.3,31.6,15.4,0002.2,0029.82,0013.68,0012.20
2022-09-14 00:59:00,,0822.4,4.99,0.00,29.7,28.7,00.0,38.3,31.7,15.5,0002.2,0029.03,0013.62,0012.16
